Location: Austin, TX
(30.3000°N, 97.7500°W)
Time: 14:19:27
(UTC-06:00)

Cosmos 1666 - Visible Passes

Search period start: 03 March 2015 00:00
Search period end: 13 March 2015 01:00
Orbit: 509 x 539 km, 82.5° (Epoch: 02 March)

Date Brightness Start Highest point End Pass type
(mag) Time Alt. Az. Time Alt. Az. Time Alt. Az.
08 Mar 4.2 20:54:21 10° SSE 21:01:32 11° NNE 21:01:40 10° NNE visible
09 Mar 3.0 20:41:58 10° SSE 20:45:32 41° E 20:49:08 10° NNE visible
10 Mar 3.2 20:29:36 10° SSE 20:33:04 35° E 20:36:33 10° NNE visible
11 Mar 3.4 20:17:16 10° SSE 20:20:34 30° E 20:23:56 10° NNE visible
11 Mar 6.1 21:55:21 10° W 21:56:37 11° WNW 21:57:40 10° WNW visible
12 Mar 3.6 20:04:56 10° SSE 20:08:05 26° E 20:11:17 10° NNE visible
12 Mar 6.0 21:42:10 10° WSW 21:44:03 13° WNW 21:45:44 10° NW visible
